| time (UTC) | temp C | wind direction | speed KPH | gust KPH | rain 1hr cm | rain 24hr cm | rain mn cm | humidity % | barometer mb |
| 20260505171615 | 13 | 165 | 6.4 | 11.3 | 0.00 | 0.00 | 0.00 | 77 | 1016.5 |
| 20260505171519 | 14 | 355 | 0.0 | 0.0 | 0.00 | 0.00 | 0.00 | 71 | 1014.6 |
| 20260505170057 | 13 | 137 | 4.8 | 9.7 | 0.00 | 0.00 | 0.00 | 78 | 1016.5 |
| 20260505170022 | 13 | 355 | 0.0 | 1.6 | 0.00 | 0.00 | 0.00 | 71 | 1014.3 |
| 20260505164558 | 13 | 155 | 4.8 | 8.0 | 0.00 | 0.00 | 0.00 | 81 | 1016.4 |
| 20260505164535 | 13 | 43 | 0.0 | 4.8 | 0.00 | 0.00 | 0.00 | 72 | 1014.4 |
| 20260505163056 | 12 | 0 | 1.6 | 8.0 | 0.00 | 0.00 | 0.00 | 83 | 1016.0 |
| 20260505163015 | 13 | 248 | 0.0 | 4.8 | 0.00 | 0.00 | 0.00 | 72 | 1014.2 |
| 20260505161557 | 12 | 226 | 3.2 | 9.7 | 0.00 | 0.00 | 0.00 | 84 | 1016.1 |
| 20260505161512 | 13 | 196 | 0.0 | 3.2 | 0.00 | 0.00 | 0.00 | 74 | 1014.3 |
| 20260505153053 | 12 | 133 | 1.6 | 4.8 | 0.00 | 0.00 | 0.00 | 87 | 1015.9 |
| 20260505153013 | 12 | 217 | 0.0 | 4.8 | 0.00 | 0.00 | 0.00 | 74 | 1014.1 |
| 20260505151558 | 12 | 111 | 1.6 | 4.8 | 0.00 | 0.00 | 0.00 | 88 | 1015.8 |
| 20260505151514 | 12 | 254 | 0.0 | 0.0 | 0.00 | 0.00 | 0.00 | 75 | 1013.9 |
| 20260505150111 | 12 | 9 | 0.0 | 3.2 | 0.00 | 0.00 | 0.00 | 88 | 1015.6 |
| 20260505124559 | 11 | 9 | 1.6 | 4.8 | 0.00 | 0.00 | 0.00 | 87 | 1015.0 |
| 20260505124503 | 12 | 317 | 0.0 | 0.0 | 0.00 | 0.00 | 0.00 | 74 | 1013.5 |
| 20260505123102 | 11 | 30 | 3.2 | 4.8 | 0.00 | 0.00 | 0.00 | 87 | 1015.0 |
| 20260505123002 | 12 | 318 | 0.0 | 1.6 | 0.00 | 0.00 | 0.00 | 75 | 1013.5 |
| 20260505121630 | 11 | 22 | 3.2 | 4.8 | 0.00 | 0.00 | 0.00 | 87 | 1015.1 |
| 20260505121600 | 12 | 317 | 0.0 | 1.6 | 0.00 | 0.00 | 0.00 | 74 | 1013.4 |
| 20260505120057 | 11 | 323 | 1.6 | 4.8 | 0.00 | 0.00 | 0.00 | 86 | 1015.1 |
| 20260505114602 | 12 | 317 | 0.0 | 1.6 | 0.00 | 0.00 | 0.00 | 73 | 1013.6 |
| 20260505114557 | 11 | 334 | 0.0 | 3.2 | 0.00 | 0.00 | 0.00 | 86 | 1015.0 |
| 20260505113105 | 11 | 309 | 3.2 | 4.8 | 0.00 | 0.00 | 0.00 | 86 | 1015.2 |
| 20260505113102 | 12 | 49 | 0.0 | 0.0 | 0.00 | 0.00 | 0.00 | 73 | 1013.6 |
| 20260505111559 | 12 | 49 | 0.0 | 0.0 | 0.00 | 0.00 | 0.00 | 72 | 1013.6 |
| 20260505110105 | 12 | 84 | 0.0 | 0.0 | 0.00 | 0.00 | 0.00 | 72 | 1013.6 |
| 20260505101600 | 11 | 9 | 3.2 | 4.8 | 0.00 | 0.00 | 0.00 | 86 | 1015.0 |
| 20260505101557 | 12 | 360 | 0.0 | 1.6 | 0.00 | 0.00 | 0.00 | 69 | 1013.7 |
| 20260505100136 | 11 | 9 | 1.6 | 4.8 | 0.00 | 0.00 | 0.00 | 85 | 1015.1 |
| 20260505100055 | 12 | 338 | 0.0 | 4.8 | 0.00 | 0.00 | 0.00 | 68 | 1013.8 |
| 20260505094556 | 12 | 285 | 1.6 | 4.8 | 0.00 | 0.00 | 0.00 | 68 | 1013.8 |
| 20260505093056 | 12 | 286 | 1.6 | 4.8 | 0.00 | 0.00 | 0.00 | 85 | 1015.2 |
| 20260505093050 | 12 | 355 | 0.0 | 3.2 | 0.00 | 0.00 | 0.00 | 69 | 1014.0 |
| 20260505091616 | 12 | 309 | 3.2 | 4.8 | 0.00 | 0.00 | 0.00 | 85 | 1015.5 |
| 20260505091556 | 13 | 292 | 0.0 | 1.6 | 0.00 | 0.00 | 0.00 | 70 | 1013.9 |
| 20260505090100 | 12 | 9 | 3.2 | 11.3 | 0.00 | 0.00 | 0.00 | 86 | 1015.6 |
| 20260505090056 | 13 | 128 | 0.0 | 0.0 | 0.00 | 0.00 | 0.00 | 71 | 1014.1 |
| 20260505084553 | 12 | 284 | 3.2 | 6.4 | 0.00 | 0.00 | 0.00 | 86 | 1015.6 |
| 20260505084550 | 13 | 76 | 0.0 | 4.8 | 0.00 | 0.00 | 0.00 | 71 | 1014.3 |
| 20260505083057 | 12 | 227 | 1.6 | 4.8 | 0.00 | 0.00 | 0.00 | 86 | 1015.6 |
| 20260505083049 | 13 | 32 | 1.6 | 6.4 | 0.00 | 0.00 | 0.00 | 69 | 1014.5 |
| 20260505081557 | 13 | 342 | 0.0 | 3.2 | 0.00 | 0.00 | 0.00 | 70 | 1014.3 |
| 20260505080054 | 11 | 309 | 1.6 | 9.7 | 0.00 | 0.00 | 0.00 | 86 | 1015.8 |
| 20260505080047 | 13 | 16 | 0.0 | 3.2 | 0.00 | 0.00 | 0.00 | 72 | 1014.4 |
| 20260505074602 | 13 | 38 | 0.0 | 3.2 | 0.00 | 0.00 | 0.00 | 74 | 1014.5 |
| 20260505074553 | 11 | 319 | 3.2 | 6.4 | 0.00 | 0.00 | 0.00 | 86 | 1015.8 |
| 20260505073100 | 11 | 334 | 3.2 | 12.9 | 0.00 | 0.00 | 0.00 | 86 | 1015.6 |
| 20260505073039 | 13 | 26 | 0.0 | 0.0 | 0.00 | 0.00 | 0.00 | 75 | 1014.4 |
| 20260505071552 | 11 | 346 | 3.2 | 9.7 | 0.00 | 0.00 | 0.00 | 86 | 1015.6 |
| 20260505071537 | 13 | 35 | 0.0 | 3.2 | 0.00 | 0.00 | 0.00 | 76 | 1014.3 |
| 20260505070057 | 11 | 31 | 6.4 | 17.7 | 0.00 | 0.00 | 0.00 | 85 | 1015.6 |
| 20260505070035 | 13 | 35 | 0.0 | 1.6 | 0.00 | 0.00 | 0.00 | 75 | 1014.0 |
| 20260505064602 | 11 | 327 | 6.4 | 14.5 | 0.00 | 0.00 | 0.00 | 85 | 1015.3 |
| 20260505064536 | 13 | 34 | 0.0 | 3.2 | 0.00 | 0.00 | 0.00 | 75 | 1014.1 |
| 20260505063054 | 12 | 338 | 4.8 | 14.5 | 0.00 | 0.00 | 0.00 | 85 | 1015.2 |
| 20260505063040 | 14 | 277 | 0.0 | 3.2 | 0.00 | 0.00 | 0.00 | 75 | 1014.2 |
| 20260505061555 | 12 | 321 | 9.7 | 16.1 | 0.00 | 0.00 | 0.00 | 85 | 1015.4 |
| 20260505061542 | 14 | 346 | 0.0 | 3.2 | 0.00 | 0.00 | 0.00 | 74 | 1013.9 |
| 20260505060059 | 12 | 346 | 8.0 | 14.5 | 0.00 | 0.00 | 0.00 | 84 | 1015.5 |
| 20260505060034 | 14 | 17 | 0.0 | 0.0 | 0.00 | 0.00 | 0.00 | 74 | 1013.9 |
| 20260505054620 | 12 | 329 | 6.4 | 12.9 | 0.00 | 0.00 | 0.00 | 84 | 1015.6 |
| 20260505054536 | 14 | 291 | 0.0 | 1.6 | 0.00 | 0.00 | 0.00 | 74 | 1014.2 |
| 20260505053057 | 12 | 17 | 6.4 | 12.9 | 0.00 | 0.00 | 0.00 | 83 | 1015.7 |
| 20260505053032 | 14 | 310 | 0.0 | 6.4 | 0.00 | 0.00 | 0.00 | 72 | 1014.3 |
| 20260505051555 | 12 | 336 | 6.4 | 12.9 | 0.00 | 0.00 | 0.00 | 83 | 1015.8 |
| 20260505051532 | 14 | 51 | 0.0 | 3.2 | 0.00 | 0.00 | 0.00 | 71 | 1014.5 |
| 20260505041605 | 13 | 336 | 1.6 | 12.9 | 0.00 | 0.00 | 0.00 | 81 | 1015.4 |
| 20260505041527 | 15 | 32 | 1.6 | 8.0 | 0.00 | 0.00 | 0.00 | 70 | 1013.9 |
| 20260505040058 | 13 | 228 | 9.7 | 19.3 | 0.00 | 0.00 | 0.00 | 81 | 1015.2 |
| 20260505040027 | 15 | 40 | 1.6 | 4.8 | 0.00 | 0.00 | 0.00 | 70 | 1013.7 |
| 20260505034601 | 13 | 261 | 6.4 | 17.7 | 0.00 | 0.00 | 0.00 | 81 | 1014.9 |
| 20260505034526 | 15 | 42 | 0.0 | 4.8 | 0.00 | 0.00 | 0.00 | 69 | 1013.4 |
| 20260505033057 | 13 | 221 | 11.3 | 27.4 | 0.00 | 0.00 | 0.00 | 81 | 1014.7 |
| 20260505033035 | 15 | 57 | 0.0 | 4.8 | 0.00 | 0.00 | 0.00 | 67 | 1013.2 |
| 20260505031605 | 13 | 221 | 8.0 | 24.1 | 0.00 | 0.00 | 0.00 | 81 | 1015.0 |
| 20260505031524 | 15 | 43 | 1.6 | 4.8 | 0.00 | 0.00 | 0.00 | 65 | 1013.0 |
| 20260505030103 | 13 | 233 | 16.1 | 30.6 | 0.00 | 0.00 | 0.00 | 81 | 1014.9 |
| 20260505030024 | 16 | 39 | 0.0 | 4.8 | 0.00 | 0.00 | 0.00 | 66 | 1013.2 |
| 20260505024607 | 13 | 187 | 17.7 | 29.0 | 0.00 | 0.00 | 0.00 | 81 | 1015.0 |
| 20260505024548 | 16 | 40 | 1.6 | 4.8 | 0.00 | 0.00 | 0.00 | 65 | 1013.2 |
| 20260505023104 | 13 | 178 | 16.1 | 27.4 | 0.00 | 0.00 | 0.00 | 80 | 1014.8 |
| 20260505023032 | 16 | 50 | 0.0 | 8.0 | 0.00 | 0.00 | 0.00 | 64 | 1013.1 |
| 20260505021558 | 13 | 189 | 16.1 | 33.8 | 0.00 | 0.00 | 0.00 | 80 | 1014.8 |
| 20260505021542 | 16 | 339 | 1.6 | 6.4 | 0.00 | 0.00 | 0.00 | 63 | 1013.0 |
| 20260505020105 | 13 | 175 | 19.3 | 32.2 | 0.00 | 0.00 | 0.00 | 79 | 1014.9 |
| 20260505020022 | 16 | 44 | 3.2 | 9.7 | 0.00 | 0.00 | 0.00 | 61 | 1013.0 |
| 20260505014556 | 13 | 161 | 20.9 | 29.0 | 0.00 | 0.00 | 0.00 | 76 | 1014.8 |
| 20260505014526 | 16 | 42 | 1.6 | 6.4 | 0.00 | 0.00 | 0.00 | 60 | 1013.0 |
| 20260505013056 | 14 | 183 | 14.5 | 29.0 | 0.00 | 0.00 | 0.00 | 76 | 1015.0 |
| 20260505013022 | 17 | 35 | 1.6 | 4.8 | 0.00 | 0.00 | 0.00 | 59 | 1012.9 |
| 20260505011554 | 15 | 207 | 16.1 | 27.4 | 0.00 | 0.00 | 0.00 | 74 | 1015.2 |
| 20260505011527 | 17 | 46 | 1.6 | 6.4 | 0.00 | 0.00 | 0.00 | 60 | 1013.2 |
| 20260505010111 | 15 | 221 | 12.9 | 30.6 | 0.00 | 0.00 | 0.00 | 74 | 1015.2 |
| 20260505010021 | 17 | 38 | 1.6 | 6.4 | 0.00 | 0.00 | 0.00 | 60 | 1013.1 |
| 20260505004600 | 14 | 170 | 20.9 | 32.2 | 0.00 | 0.00 | 0.00 | 75 | 1015.4 |
| 20260505004534 | 18 | 35 | 1.6 | 9.7 | 0.00 | 0.00 | 0.00 | 59 | 1013.4 |
| 20260505003119 | 14 | 183 | 20.9 | 33.8 | 0.00 | 0.00 | 0.00 | 75 | 1015.3 |
| 20260505003020 | 18 | 31 | 1.6 | 9.7 | 0.00 | 0.00 | 0.00 | 58 | 1013.3 |
| 20260505001609 | 14 | 175 | 22.5 | 32.2 | 0.00 | 0.00 | 0.00 | 76 | 1015.4 |
| 20260505001519 | 18 | 28 | 1.6 | 8.0 | 0.00 | 0.00 | 0.00 | 58 | 1013.2 |
| 20260505000020 | 18 | 68 | 1.6 | 8.0 | 0.00 | 0.00 | 0.00 | 57 | 1013.2 |
| 20260504234559 | 14 | 175 | 22.5 | 32.2 | 0.00 | 0.00 | 0.00 | 77 | 1015.3 |
| 20260504234518 | 18 | 40 | 1.6 | 8.0 | 0.00 | 0.00 | 0.00 | 57 | 1013.1 |
| 20260504233102 | 15 | 175 | 20.9 | 33.8 | 0.00 | 0.00 | 0.00 | 76 | 1015.4 |
| 20260504233018 | 18 | 30 | 1.6 | 8.0 | 0.00 | 0.00 | 0.00 | 59 | 1013.1 |
| 20260504231557 | 15 | 205 | 22.5 | 32.2 | 0.00 | 0.00 | 0.00 | 75 | 1015.3 |
| 20260504231516 | 18 | 40 | 3.2 | 6.4 | 0.00 | 0.00 | 0.00 | 58 | 1013.1 |
| 20260504230113 | 15 | 201 | 22.5 | 30.6 | 0.00 | 0.00 | 0.00 | 75 | 1015.4 |
| 20260504230016 | 18 | 46 | 1.6 | 9.7 | 0.00 | 0.00 | 0.00 | 57 | 1013.0 |
| 20260504224612 | 15 | 205 | 22.5 | 32.2 | 0.00 | 0.00 | 0.00 | 77 | 1015.4 |
| 20260504224515 | 20 | 46 | 1.6 | 8.0 | 0.00 | 0.00 | 0.00 | 54 | 1013.0 |
| 20260504223103 | 15 | 184 | 19.3 | 30.6 | 0.00 | 0.00 | 0.00 | 78 | 1015.6 |
| 20260504223015 | 20 | 47 | 1.6 | 12.9 | 0.00 | 0.00 | 0.00 | 54 | 1013.1 |
| 20260504221555 | 15 | 202 | 24.1 | 32.2 | 0.00 | 0.00 | 0.00 | 77 | 1015.7 |
| 20260504221513 | 19 | 293 | 1.6 | 6.4 | 0.00 | 0.00 | 0.00 | 55 | 1013.1 |
| 20260504220059 | 15 | 198 | 19.3 | 29.0 | 0.00 | 0.00 | 0.00 | 74 | 1016.1 |
| 20260504220018 | 18 | 187 | 1.6 | 6.4 | 0.00 | 0.00 | 0.00 | 54 | 1013.2 |
| 20260504214557 | 15 | 198 | 17.7 | 25.7 | 0.00 | 0.00 | 0.00 | 78 | 1016.2 |
| 20260504214513 | 18 | 186 | 0.0 | 6.4 | 0.00 | 0.00 | 0.00 | 54 | 1013.4 |
| 20260504213103 | 15 | 175 | 16.1 | 25.7 | 0.00 | 0.00 | 0.00 | 78 | 1016.0 |
| 20260504213012 | 19 | 279 | 0.0 | 12.9 | 0.00 | 0.00 | 0.00 | 54 | 1013.5 |
| 20260504211559 | 15 | 183 | 17.7 | 25.7 | 0.00 | 0.00 | 0.00 | 78 | 1016.2 |
| 20260504211510 | 19 | 5 | 1.6 | 11.3 | 0.00 | 0.00 | 0.00 | 54 | 1013.3 |
| 20260504210104 | 15 | 194 | 16.1 | 24.1 | 0.00 | 0.00 | 0.00 | 77 | 1016.5 |
| 20260504210010 | 20 | 240 | 0.0 | 4.8 | 0.00 | 0.00 | 0.00 | 51 | 1013.5 |
| 20260504204602 | 15 | 202 | 17.7 | 24.1 | 0.00 | 0.00 | 0.00 | 75 | 1016.1 |
| 20260504204514 | 19 | 56 | 1.6 | 6.4 | 0.00 | 0.00 | 0.00 | 54 | 1013.7 |
| 20260504203056 | 15 | 182 | 14.5 | 22.5 | 0.00 | 0.00 | 0.00 | 77 | 1016.1 |
| 20260504203008 | 19 | 191 | 3.2 | 12.9 | 0.00 | 0.00 | 0.00 | 53 | 1013.6 |
| 20260504201612 | 19 | 174 | 3.2 | 11.3 | 0.00 | 0.00 | 0.00 | 51 | 1013.6 |
| 20260504201559 | 15 | 185 | 14.5 | 24.1 | 0.00 | 0.00 | 0.00 | 78 | 1016.2 |
| 20260504200104 | 14 | 184 | 14.5 | 22.5 | 0.00 | 0.00 | 0.00 | 79 | 1016.4 |
| 20260504200005 | 18 | 232 | 3.2 | 11.3 | 0.00 | 0.00 | 0.00 | 52 | 1013.7 |
| 20260504194556 | 15 | 207 | 14.5 | 19.3 | 0.00 | 0.00 | 0.00 | 80 | 1016.4 |
| 20260504194506 | 19 | 104 | 0.0 | 6.4 | 0.00 | 0.00 | 0.00 | 52 | 1013.8 |
| 20260504193056 | 14 | 198 | 16.1 | 24.1 | 0.00 | 0.00 | 0.00 | 79 | 1016.5 |
| 20260504193001 | 18 | 165 | 1.6 | 9.7 | 0.00 | 0.00 | 0.00 | 53 | 1013.7 |
| 20260504191608 | 15 | 198 | 14.5 | 22.5 | 0.00 | 0.00 | 0.00 | 77 | 1016.6 |
| 20260504191559 | 18 | 207 | 0.0 | 8.0 | 0.00 | 0.00 | 0.00 | 53 | 1013.9 |
| 20260504190058 | 17 | 196 | 0.0 | 3.2 | 0.00 | 0.00 | 0.00 | 54 | 1014.0 |
| 20260504190055 | 15 | 198 | 12.9 | 19.3 | 0.00 | 0.00 | 0.00 | 77 | 1016.4 |
| 20260504184600 | 17 | 40 | 0.0 | 9.7 | 0.00 | 0.00 | 0.00 | 54 | 1013.9 |
| 20260504184555 | 15 | 203 | 9.7 | 16.1 | 0.00 | 0.00 | 0.00 | 75 | 1016.4 |
| 20260504183101 | 17 | 42 | 1.6 | 6.4 | 0.00 | 0.00 | 0.00 | 54 | 1013.9 |
| 20260504183054 | 15 | 153 | 8.0 | 19.3 | 0.00 | 0.00 | 0.00 | 75 | 1016.4 |
| 20260504181556 | 15 | 171 | 9.7 | 19.3 | 0.00 | 0.00 | 0.00 | 77 | 1016.3 |
| 20260504180058 | 14 | 175 | 11.3 | 19.3 | 0.00 | 0.00 | 0.00 | 77 | 1016.5 |
| 20260504180054 | 17 | 22 | 0.0 | 4.8 | 0.00 | 0.00 | 0.00 | 53 | 1014.0 |
| 20260504174559 | 14 | 165 | 12.9 | 17.7 | 0.00 | 0.00 | 0.00 | 78 | 1016.1 |
| 20260504174553 | 17 | 165 | 0.0 | 6.4 | 0.00 | 0.00 | 0.00 | 58 | 1013.7 |
| 20260504173101 | 14 | 150 | 9.7 | 17.7 | 0.00 | 0.00 | 0.00 | 78 | 1016.0 |
| 20260504173053 | 17 | 174 | 0.0 | 4.8 | 0.00 | 0.00 | 0.00 | 57 | 1013.6 |